{"data":{"norad_id":62576,"epoch":"2026-05-25T03:20:50.209728Z","epoch_age_seconds":66114,"freshness":"FRESH","line1":"1 62576U 25007B   26145.13947002 -.00000042  00000+0  93201-4 0  9999","line2":"2 62576  54.9777  12.6033 0013447  28.8660 331.3037 13.80604925 71535","mean_motion":13.80604925,"eccentricity":0.0013447,"inclination_deg":54.9777,"raan_deg":12.6033,"arg_perigee_deg":28.866,"mean_anomaly_deg":331.3037,"bstar":9.3201e-5,"rev_number":7153,"period_min":104.30210510802,"perigee_km":951.8719850534,"apogee_km":971.61185542149,"semimajor_km":7339.8789202374,"source":"CELESTRAK","updated_at":"2026-05-25T13:38:03.089779Z"}}